Location: Baturyn
(53.6332°N, 113.5041°W)
Time: 08:26:58
(UTC+00:00)

N. Korean satellite - Pass Details

Date: 08 December 2021
Orbit: 447 x 490 km, 97.3° (Epoch: 26 January)

Event Time Altitude Azimuth Distance (km) Brightness Sun altitude
Rises 01:00:06 0° 209° (SSW) 2,511 11.0 -14.5°
Reaches altitude 10° 01:02:53 10° 234° (SW) 1,629 10.4 -14.9°
Maximum altitude 01:04:56 15° 270° (W) 1,360 9.9 -15.1°
Drops below altitude 10° 01:06:58 10° 306° (NW) 1,622 9.7 -15.4°
Sets 01:09:44 0° 332° (NNW) 2,494 10.3 -15.8°
